Kozani, Greece

10:47 AM EET on November 25, 2017 (GMT +0200)
Kozani

Weather History for LGKZ - October, 2012

Change the Weather History Date:

Saturday, October 13, 2012

  Actual Average Record
Temperature  
Mean Temperature 65 °F -  
Max Temperature 77 °F - - ()
Min Temperature 53 °F - - ()
Growing Degree Days 15 (Base 50)    
Moisture  
Dew Point 53 °F    
Average Humidity 73    
Maximum Humidity 94    
Minimum Humidity 39    
Precipitation  
Precipitation 0.00 in - - ()
Sea Level Pressure  
Sea Level Pressure 30.00 in    
Wind  
Wind Speed 3 mph ()    
Max Wind Speed 12 mph    
Max Gust Speed -    
Visibility 6.2 miles    
Events Rain    
T = Trace of Precipitation, MM = Missing Value Source: Averaged Metar Reports

Daily Weather History Graph

Daily Weather History Graph

Search for Another Location

Airport or City:

Trip Planner

Search our weather history database for the weather conditions in past years. The results will help you decide how hot, cold, wet, or windy it might be!

Date:

Astronomy

Oct. 13, 2012 Rise Set
Actual Time 7:41 AM EEST 6:55 PM EEST
Civil Twilight 7:14 AM EEST 7:23 PM EEST
Nautical Twilight 6:42 AM EEST 7:54 PM EEST
Astronomical Twilight 6:11 AM EEST 8:26 PM EEST
Moon 5:10 AM EEST (10/13) 5:28 PM EEST (10/13)
Length of Visible Light 12h 08m
Length of Day
11h 14m
Waning Crescent, 6% of the Moon is Illuminated
Oct 13
Waning Crescent
Oct 15
New
Oct 22
First Quarter
Oct 29
Full
Nov 7
Last Quarter

Hourly Weather History & Observations

Time (EEST) Temp. Dew Point Humidity Pressure Visibility Wind Dir Wind Speed Gust Speed Precip Events Conditions
12:20 AM 60.8 °F 53.6 °F 77% 30.04 in - West 11.5 mph - N/A Rain Light Rain
12:50 AM 60.8 °F 55.4 °F 82% 30.04 in - Calm Calm - N/A Rain Light Rain
1:20 AM 59.0 °F 55.4 °F 88% 30.04 in - Variable 3.5 mph - N/A Rain Light Rain
1:50 AM 59.0 °F 57.2 °F 94% 30.01 in - East 5.8 mph - N/A Rain Light Rain
2:20 AM 57.2 °F 55.4 °F 94% 30.01 in - ENE 4.6 mph - N/A Rain Light Rain
2:50 AM 57.2 °F 55.4 °F 94% 30.01 in - Calm Calm - N/A   Unknown
3:20 AM 57.2 °F 55.4 °F 94% 30.01 in - Variable 2.3 mph - N/A Rain Light Rain
3:50 AM 57.2 °F 55.4 °F 94% 30.01 in - Variable 3.5 mph - N/A Rain Light Rain
4:20 AM 57.2 °F 55.4 °F 94% 30.01 in - NNE 4.6 mph - N/A Rain Light Rain
4:50 AM 57.2 °F 53.6 °F 88% 30.01 in - Variable 3.5 mph - N/A Rain Light Rain
5:50 AM 55.4 °F 53.6 °F 94% 30.01 in - Variable 3.5 mph - N/A   Unknown
6:20 AM 55.4 °F 51.8 °F 88% 30.01 in - Variable 2.3 mph - N/A   Unknown
6:50 AM 53.6 °F 51.8 °F 94% 30.01 in - Variable 2.3 mph - N/A   Unknown
7:20 AM 53.6 °F 51.8 °F 94% 30.01 in - Variable 3.5 mph - N/A   Unknown
7:50 AM 53.6 °F 51.8 °F 94% 30.01 in 6.2 mi Calm Calm - N/A   Mostly Cloudy
9:50 AM 62.6 °F 53.6 °F 72% 30.04 in 6.2 mi Calm Calm - N/A   Scattered Clouds
11:20 AM 66.2 °F 50.0 °F 56% 30.04 in 6.2 mi Calm Calm - N/A   Scattered Clouds
11:50 AM 66.2 °F 55.4 °F 68% 30.04 in 6.2 mi Calm Calm - N/A   Scattered Clouds
12:50 PM 69.8 °F 53.6 °F 56% 30.01 in 6.2 mi East 4.6 mph - N/A   Scattered Clouds
1:50 PM 71.6 °F 50.0 °F 46% 30.01 in 6.2 mi Calm Calm - N/A   Scattered Clouds
2:50 PM 75.2 °F 53.6 °F 47% 29.98 in 6.2 mi Calm Calm - N/A   Scattered Clouds
3:50 PM 75.2 °F 51.8 °F 44% 29.98 in 6.2 mi West 4.6 mph - N/A   Scattered Clouds
4:50 PM 77.0 °F 50.0 °F 39% 29.98 in 6.2 mi Calm Calm - N/A   Scattered Clouds
5:50 PM 73.4 °F 50.0 °F 44% 29.95 in 6.2 mi SSE 8.1 mph - N/A   Scattered Clouds
6:50 PM 69.8 °F 51.8 °F 53% 29.98 in 6.2 mi Calm Calm - N/A   Scattered Clouds
7:50 PM 64.4 °F 51.8 °F 64% 29.98 in 6.2 mi Calm Calm - N/A   Scattered Clouds
8:50 PM 66.2 °F 50.0 °F 56% 29.98 in 6.2 mi Calm Calm - N/A   Scattered Clouds
9:20 PM 64.4 °F 51.8 °F 64% 29.98 in - Variable 2.3 mph - N/A   Unknown
9:50 PM 64.4 °F 51.8 °F 64% 29.98 in - Variable 3.5 mph - N/A   Unknown
10:20 PM 64.4 °F 51.8 °F 64% 29.98 in - Variable 3.5 mph - N/A   Unknown
10:50 PM 64.4 °F 51.8 °F 64% 29.98 in - NNE 5.8 mph - N/A   Unknown
11:20 PM 62.6 °F 51.8 °F 68% 29.98 in - Variable 3.5 mph - N/A   Unknown
11:50 PM 62.6 °F 51.8 °F 68% 29.98 in - Variable 2.3 mph - N/A   Unknown